Retour au catalogue

CZ-4B DEB

ActifSSO
NORAD 36289·DEBRIS·🇨🇳 China

Lancé Oct 25, 2008 depuis Taiyuan Satellite Launch Center

Loading…

Prochains Passages (prochaines 24 heures)

TLE

FraisSource: Space-Track

Époque: Sep 11, 2026, 19:49 UTC

1 36289U 08053K   26254.82633694  .00001597  00000-0  11585-3 0  9999
2 36289  97.8281 284.1839 0011554 125.7996 234.4305 15.05363693961104

Suivez CZ-4B DEB en temps réel avec AllMySat

Download on the App Store